Location: Izdebno
(52.6670°N, 16.2170°E)
Time: 10:00:50
(UTC+01:00)

Vanguard 2 - Pass Details

Date: 01 October 2023
Orbit: 552 x 2923 km, 32.9° (Epoch: 07 December)

Event Time Altitude Azimuth Distance (km) Brightness Sun altitude
Rises 21:42:29 0° 255° (WSW) 6,338 12.7 -28.0°
Reaches altitude 10° 21:48:05 10° 244° (WSW) 4,980 11.9 -28.7°
Maximum altitude 21:57:50 24° 199° (SSW) 3,171 10.4 -29.9°
Enters shadow 21:58:56 24° 190° (S) 3,097 10.3 -30.0°
